Location: Brachstadt
(48.6975°N, 10.6755°E)
Time: 04:37:25
(UTC+00:00)

Cosmos 2026 Rocket - Pass Details

Date: 18 September 2020
Orbit: 940 x 1000 km, 82.9° (Epoch: 29 October)

Event Time Altitude Azimuth Distance (km) Brightness Sun altitude
Rises 19:55:54 0° 350° (N) 3,715 7.7 -24.6°
Reaches altitude 10° 19:58:26 10° 349° (N) 2,769 6.9 -24.9°
Maximum altitude 20:04:48 83° 264° (W) 1,014 4.0 -25.8°
Enters shadow 20:06:55 45° 182° (S) 1,328 4.4 -26.0°
